Погода в Пяндже

Погода в Пяндже : погода сейчас, прогноз погоды и архив. Всё, что Вы хотите узнать о погоде в Пяндже!

Поиск расширенной информации на нашем сайте:

Другие новости

Новости СМИ2

Главная страница сайта

Новости сайта

03.07.2017

Напоминаем, что на нашем специализированном сайте Метеоцентр.Азия вы можете получить высокодетализированные автоматические прогнозы погоды по пунктам России, СНГ и мира в авиационном формате (включающие направление и скорость ветра, видимость, явления погоды, количество и форму облачности, нижнюю и верхнюю границу облачности).


Погода в Пяндже - сегодня

Время (UTC), дата Ветер
(°,м/с) 
Видим.   Явления Облачность Т
(°С)
Тd
(°С)
f(%) Тe
(°С)
Pmin
(гПа)
dP
(гПа)
Po
(мм)
O2
(г/м3)
Тmin Tmax R s Состояние
почвы
06 22.09.18 270 (З) 20000 м    3/0 средняя 
[Ac trans]
+25.4 +9.9 38 +27  1016.2  0.3  731  267  +15.4         
09 22.09.18 280 (З) 20000 м    3/0 средняя 
[Ac trans]
+28.6 +8.9 29 +29  1013.5  -2.2  730  264           
12 22.09.18 300 (СЗ) 20000 м    3/0 средняя 
[Ac lent]
+29.4 +11 32 +33  1011.9  -1.5  729  263           
15 22.09.18 120 (ЮВ) н/о    4/4 1000 м 
[Sc]
+33.6 +13.5 30 +41  1012.1  -0.1  729  258    +30.5       
18 22.09.18 тихо ()   н/о    5/0 
[Sc]
+21.1 +15.2 69 +31  1013.2  0.7  729  269    +30.5       
03 23.09.18 250 (З) 20000 м    9/0 средняя 
[Ac trans]
+19.1 +15.1 78 +31  1016.5  731  271  +16.8         
06 23.09.18 230 (ЮЗ) 20000 м    3/0 верхняя 
[Ci fib]
+26 +12.8 44 +32  1016.1  1.2  731  266  +16.8         
12 23.09.18 280 (З) 20000 м    ясно 
+28 +16 48 +39  1013.5  -1.2  730  263           
15 23.09.18 120 (ЮВ) н/о    ясно 
+22.4 +13 55 +29  1014  -0.4  729  268    +30.2       
18 23.09.18 050 (СВ) н/о    3/0 средняя 
[Ac trans]
+18.7 +11.2 62 +23  1015.2  0.7  730  272    +30.2       
21 23.09.18 140 (ЮВ) н/о    ясно 
+16.4 +11 70 +21  1016.1  0.6  730  275           
00 24.09.18 100 (В) н/о    ясно 
+13.6 +9.3 75 +16  1017.4  0.7  731  279           
03 24.09.18 060 (СВ) 20000 м    ясно 
+17.6 +10.7 64 +22  1017.1  0.3  731  274  +12.5         
06 24.09.18 280 (З) 20000 м    ясно 
+26.1 +9.2 34 +27  1015.2  -0.5  730  266  +12.5         
09 24.09.18 260 (З) 20000 м    ясно 
+29.4 +9.4 29 +30  1013.2  -1.6  729  263           
12 24.09.18 270 (З) 20000 м    ясно 
+29.8 +11.8 33 +34  1012.5  -0.7  729  263           
15 24.09.18 190 (Ю) н/о    ясно 
+23.1 +12.2 50 +28  1013.1  -0.2  729  268    +31.1       
18 24.09.18 140 (ЮВ) н/о    ясно 
+18.2 +10.2 60 +22  1014.3  0.5  729  273    +31.1       
21 24.09.18 090 (В) н/о    ясно 
+15.9 +9.5 66 +18  1015.5  0.7  730  276           
03 25.09.18 230 (ЮЗ) 20000 м    ясно 
+15.4 +11.4 77 +21  1016.1  0.1  730  276  +11         
06 25.09.18 250 (З) 20000 м    ясно 
+26.6 +8.6 32 +27  1015  0.5  730  266  +11         
09 25.09.18 280 (З) 20000 м    ясно 
+30.1 +7.8 25 +30  1013.9  -0.7  730  263           
12 25.09.18 260 (З) 20000 м    4/0 верхняя 
[Ci fib]
+29.2 +10.6 32 +32  1011.7  -2.1  729  263           
15 25.09.18 170 (Ю) н/о    3/0 верхняя 
[Ci fib]
+22.9 +14.7 60 +32  1012.1  -0.4  728  267    +31.1       
18 25.09.18 010 (С) н/о    3/0 верхняя 
[Ci fib]
+20 +13.7 67 +27  1013  0.4  728  270    +31.1       
Время (UTC), дата Ветер
(°,м/с) 
Видим.   Явления Облачность Т
(°С)
Тd
(°С)
f(%) Тe
(°С)
Pmin
(гПа)
dP
(гПа)
Po
(мм)
O2
(г/м3)
Тmin Tmax R s Состояние
почвы

Для получения пояснительной информации подведите курсор к названию столбца.

ПОГОДА в Пяндже - архив

Всё, что Вы хотите узнать о погоде в Пяндже - удобно и подробно!

Выберите нужную дату (начиная с 1 января 2015* года) и нажмите кнопку "Найти".
Будут отображены архивные сводки погоды по пункту Пяндж, начиная с указанной даты.


Отображать данные в формате CSV (для использования в таблицах Excel)


Внимание! Наш архив погоды предназначен исключительно для личного некоммерческого использования в познавательных целях. Если Вам необходимы официальные справки о состоянии погоды (для производственных, юридических, коммерческих и т.п. целей), обращайтесь в органы Росгидромета.

*Примечание: данная дата относится к архиву по метеостанциям СССР (Россия, СНГ, Балтия).
Архив по метеостанциям Зарубежной Европы и Азии (кроме Китая) хранится 10 дней, по другим регионам земного шара (Китай, Африка, Америка, Австралия, Океания) - 1 день.

Пяндж - район местоположения метеостанции


Название, широта, долгота, высота метеостанции:
Пяндж 37.2°ш. 69.1°д. 363 м над ур. моря [Таджикистан]

Дополнительная информация

В oтличие oт бoльшинства пoгoдных сайтoв мы публикуем пoдрoбную метеoинфoрмацию в детальнoм прoфессиoнальнoм фoрмате.

Характеристики температуры и влажнoсти вoздуха измеряются на высoте 2 м в тени вдали oт зданий и деревьев.
Скoрoсть ветра измеряется на высoте 10 м (на урoвне рoста челoвека скoрoсть ветра ниже в 1.5-2 раза). Если метеoстанция нахoдится в гoрoде или в лесу, тo скoрoсть ветра занижена на 2-4 м/с пo сравнению с oткрытым местoм. Скoрoсть ветра над акватoриями крупных рек и oзёр, а также на вершинах хoлмoв на 2-5 м/с выше, чем в oбычных услoвиях.
Атмoсфернoе давление в разных тoчках местнoсти мoжет значительнo oтличаться oт давления на метеoстанции, в зависимoсти oт услoвий рельефа (при пoдъёме на 10 м давление пoнижается примернo на 1 мм рт.ст.).